• In Russia
  • List of Countries
  • For 7 days
  • Water Temperature
  • Satellite Maps
  • Weather Map
  • Weather Widgets
  • user-avatar
    Login

    Hourly Weather Nagykata

    Today, 13 December, Wednesday

    Time Temperature Precipitation Wind Pressure Humidity
    00:00 +6°C° 0.5 mm 4 mps 751 mmHg 79%
    01:00 +5°C° 0 mm 5 mps 751 mmHg 77%
    02:00 +5°C° 0.3 mm 5 mps 752 mmHg 75%
    03:00 +3°C° 0.3 mm 5 mps 752 mmHg 73%
    04:00 +4°C° 0.3 mm 4 mps 752 mmHg 71%
    05:00 +4°C° 0.2 mm 4 mps 752 mmHg 71%
    06:00 +4°C° 0.2 mm 4 mps 752 mmHg 72%
    07:00 +4°C° 0.2 mm 3 mps 753 mmHg 72%
    08:00 +4°C° 0.1 mm 3 mps 753 mmHg 72%
    09:00 +4°C° 0.1 mm 3 mps 753 mmHg 71%
    10:00 +4°C° 0.1 mm 3 mps 753 mmHg 71%
    11:00 +5°C° 0 mm 2 mps 753 mmHg 70%
    12:00 +6°C° 0 mm 2 mps 753 mmHg 69%
    13:00 +6°C° 0 mm 2 mps 753 mmHg 68%
    14:00 +6°C° 0 mm 1 mps 752 mmHg 70%
    15:00 +6°C° 0 mm 1 mps 752 mmHg 72%
    16:00 +5°C° 0 mm 1 mps 752 mmHg 74%
    17:00 +5°C° 0 mm 1 mps 752 mmHg 75%
    18:00 +4°C° 0 mm 1 mps 752 mmHg 76%
    19:00 +4°C° 0 mm 1 mps 751 mmHg 77%
    20:00 +3°C° 0 mm 1 mps 751 mmHg 77%
    21:00 +3°C° 0 mm 1 mps 751 mmHg 78%
    22:00 +2°C° 0 mm 2 mps 750 mmHg 78%
    23:00 +2°C° 0 mm 2 mps 750 mmHg 79%

    Tomorrow, 14 December, Thursday

    Time Temperature Precipitation Wind Pressure Humidity
    00:00 +2°C° 0 mm 2 mps 749 mmHg 80%
    01:00 +1°C° 0 mm 2 mps 749 mmHg 81%
    02:00 0°C° 0 mm 3 mps 748 mmHg 83%
    03:00 -1°C° 0 mm 4 mps 747 mmHg 85%
    04:00 -1°C° 0 mm 4 mps 746 mmHg 87%
    05:00 0°C° 0 mm 5 mps 746 mmHg 87%
    06:00 0°C° 0 mm 5 mps 746 mmHg 87%
    07:00 +1°C° 0 mm 5 mps 745 mmHg 87%
    08:00 +2°C° 0 mm 5 mps 745 mmHg 84%
    09:00 +3°C° 0 mm 5 mps 745 mmHg 80%
    10:00 +3°C° 0 mm 5 mps 745 mmHg 77%
    11:00 +5°C° 0.1 mm 5 mps 745 mmHg 77%
    12:00 +6°C° 0.1 mm 5 mps 745 mmHg 78%
    13:00 +6°C° 0.1 mm 5 mps 745 mmHg 78%
    14:00 +6°C° 0.3 mm 4 mps 746 mmHg 78%
    15:00 +7°C° 0.3 mm 3 mps 746 mmHg 78%
    16:00 +6°C° 0.3 mm 2 mps 746 mmHg 78%
    17:00 +6°C° 0 mm 2 mps 746 mmHg 77%
    18:00 +6°C° 0 mm 2 mps 746 mmHg 75%
    19:00 +5°C° 0 mm 2 mps 746 mmHg 74%
    20:00 +5°C° 0.4 mm 2 mps 746 mmHg 75%
    21:00 +5°C° 0.4 mm 2 mps 746 mmHg 77%
    22:00 +4°C° 0.4 mm 2 mps 746 mmHg 79%
    23:00 +4°C° 0.3 mm 2 mps 746 mmHg 80%

    Day after tomorrow, 15 December, Friday

    Time Temperature Precipitation Wind Pressure Humidity
    00:00 +4°C° 0.3 mm 2 mps 745 mmHg 82%
    01:00 +4°C° 0.3 mm 2 mps 744 mmHg 83%
    02:00 +3°C° 0 mm 3 mps 743 mmHg 85%
    03:00 +3°C° 0 mm 4 mps 743 mmHg 87%
    04:00 +3°C° 0 mm 4 mps 742 mmHg 88%
    05:00 +4°C° 0.1 mm 4 mps 742 mmHg 89%
    06:00 +5°C° 0.1 mm 4 mps 741 mmHg 89%
    07:00 +5°C° 0.1 mm 4 mps 741 mmHg 90%
    08:00 +6°C° 0.6 mm 4 mps 741 mmHg 88%
    09:00 +7°C° 0.6 mm 5 mps 741 mmHg 87%
    10:00 +7°C° 0.6 mm 5 mps 741 mmHg 86%
    11:00 +7°C° 0.9 mm 5 mps 741 mmHg 86%
    12:00 +7°C° 0.9 mm 5 mps 741 mmHg 86%
    13:00 +6°C° 0.9 mm 4 mps 741 mmHg 86%
    14:00 +6°C° 0.1 mm 4 mps 741 mmHg 84%
    15:00 +5°C° 0.1 mm 3 mps 742 mmHg 83%
    16:00 +6°C° 0.1 mm 2 mps 742 mmHg 82%
    17:00 +6°C° 0.6 mm 2 mps 741 mmHg 82%
    18:00 +5°C° 0.6 mm 2 mps 741 mmHg 83%
    19:00 +5°C° 0.6 mm 2 mps 741 mmHg 84%
    20:00 +4°C° 1.9 mm 3 mps 740 mmHg 84%
    21:00 +4°C° 1.9 mm 3 mps 740 mmHg 83%
    22:00 +3°C° 1.9 mm 4 mps 739 mmHg 83%
    23:00 +3°C° 1.8 mm 4 mps 739 mmHg 84%

    16 December, Saturday

    Time Temperature Precipitation Wind Pressure Humidity
    00:00 +3°C° 1.8 mm 4 mps 739 mmHg 86%
    01:00 +3°C° 1.8 mm 4 mps 738 mmHg 87%
    02:00 +3°C° 0.2 mm 4 mps 739 mmHg 87%
    03:00 +3°C° 0.2 mm 3 mps 739 mmHg 86%
    04:00 +3°C° 0.2 mm 3 mps 739 mmHg 85%
    05:00 +3°C° 0.1 mm 3 mps 740 mmHg 86%
    06:00 +2°C° 0.1 mm 3 mps 740 mmHg 86%
    07:00 +3°C° 0.1 mm 2 mps 741 mmHg 86%
    08:00 +2°C° 0.2 mm 3 mps 742 mmHg 85%
    09:00 +2°C° 0.2 mm 3 mps 742 mmHg 83%
    10:00 +3°C° 0.2 mm 3 mps 743 mmHg 82%
    11:00 +3°C° 0 mm 3 mps 744 mmHg 79%
    12:00 +3°C° 0 mm 4 mps 744 mmHg 77%
    13:00 +4°C° 0 mm 4 mps 745 mmHg 74%
    14:00 +3°C° 0 mm 3 mps 745 mmHg 77%
    15:00 +3°C° 0 mm 3 mps 746 mmHg 79%
    16:00 +2°C° 0 mm 3 mps 747 mmHg 82%
    17:00 +2°C° 0 mm 3 mps 747 mmHg 82%
    18:00 +1°C° 0 mm 3 mps 748 mmHg 83%
    19:00 +1°C° 0 mm 3 mps 748 mmHg 84%
    20:00 +1°C° 0 mm 3 mps 748 mmHg 84%
    21:00 +1°C° 0 mm 3 mps 749 mmHg 83%
    22:00 0°C° 0 mm 3 mps 749 mmHg 82%
    23:00 0°C° 0 mm 3 mps 749 mmHg 83%

    17 December, Sunday

    Time Temperature Precipitation Wind Pressure Humidity
    00:00 -1°C° 0 mm 4 mps 750 mmHg 83%
    01:00 -1°C° 0 mm 4 mps 750 mmHg 83%
    02:00 -1°C° 0 mm 4 mps 750 mmHg 82%
    03:00 -1°C° 0 mm 4 mps 750 mmHg 82%
    04:00 -1°C° 0 mm 4 mps 750 mmHg 81%
    05:00 -1°C° 0 mm 4 mps 751 mmHg 81%
    06:00 -2°C° 0 mm 4 mps 751 mmHg 82%
    07:00 -2°C° 0 mm 4 mps 751 mmHg 82%
    08:00 -1°C° 0 mm 4 mps 752 mmHg 78%
    09:00 0°C° 0 mm 4 mps 752 mmHg 75%
    10:00 0°C° 0 mm 5 mps 753 mmHg 72%
    11:00 +1°C° 0 mm 5 mps 753 mmHg 70%
    12:00 +1°C° 0 mm 5 mps 753 mmHg 69%
    13:00 +2°C° 0 mm 5 mps 753 mmHg 67%
    14:00 +1°C° 0 mm 4 mps 753 mmHg 70%
    15:00 +1°C° 0 mm 4 mps 754 mmHg 74%
    16:00 +1°C° 0 mm 3 mps 754 mmHg 78%
    17:00 0°C° 0 mm 3 mps 755 mmHg 79%
    18:00 0°C° 0 mm 3 mps 755 mmHg 80%
    19:00 0°C° 0 mm 3 mps 756 mmHg 81%
    20:00 0°C° 0 mm 3 mps 756 mmHg 81%
    21:00 -1°C° 0 mm 3 mps 757 mmHg 82%
    22:00 -1°C° 0 mm 3 mps 757 mmHg 83%
    23:00 -1°C° 0 mm 3 mps 757 mmHg 83%

    18 December, Monday

    Time Temperature Precipitation Wind Pressure Humidity
    00:00 -1°C° 0 mm 2 mps 758 mmHg 83%
    01:00 -1°C° 0 mm 2 mps 758 mmHg 83%
    02:00 -1°C° 0 mm 2 mps 758 mmHg 82%
    03:00 -2°C° 0 mm 3 mps 758 mmHg 82%
    04:00 -2°C° 0 mm 3 mps 758 mmHg 81%
    05:00 -2°C° 0 mm 3 mps 759 mmHg 80%
    06:00 -2°C° 0 mm 2 mps 759 mmHg 80%
    07:00 -2°C° 0 mm 2 mps 759 mmHg 79%
    08:00 -1°C° 0 mm 3 mps 759 mmHg 76%
    09:00 -1°C° 0 mm 3 mps 759 mmHg 72%
    10:00 0°C° 0 mm 3 mps 760 mmHg 68%
    11:00 0°C° 0 mm 3 mps 759 mmHg 67%
    12:00 +1°C° 0 mm 3 mps 759 mmHg 65%
    13:00 +1°C° 0 mm 3 mps 758 mmHg 63%
    14:00 +2°C° 0 mm 2 mps 758 mmHg 67%
    15:00 +1°C° 0 mm 2 mps 758 mmHg 72%
    16:00 +1°C° 0 mm 1 mps 758 mmHg 77%
    17:00 +1°C° 0 mm 1 mps 758 mmHg 79%
    18:00 +1°C° 0 mm 1 mps 758 mmHg 81%
    19:00 0°C° 0 mm 1 mps 758 mmHg 83%
    20:00 0°C° 0 mm 1 mps 758 mmHg 83%
    21:00 -1°C° 0 mm 0 mps 759 mmHg 84%
    22:00 -1°C° 0 mm 0 mps 759 mmHg 85%
    23:00 -1°C° 0 mm 0 mps 759 mmHg 85%
    Show more